Location: RyutenAO
(34.8939°N, 134.0022°E)
Time: 06:25:36
(UTC+09:00)

N. Korean satellite - Pass Details

Date: 02 December 2022
Orbit: 407 x 442 km, 97.3° (Epoch: 05 February)

Event Time Altitude Azimuth Distance (km) Brightness Sun altitude
Rises 04:27:03 0° 32° (NNE) 2,511 10.5 -29.5°
Reaches altitude 10° 04:29:45 10° 55° (NE) 1,621 9.7 -29.0°
Maximum altitude 04:31:57 16° 94° (E) 1,294 9.5 -28.5°
Drops below altitude 10° 04:34:07 10° 134° (SE) 1,597 9.8 -28.1°
Sets 04:36:44 0° 157° (SSE) 2,452 10.6 -27.5°
